Simultaneous Nadir Overpasses (SNOs) Predictions

Prediction of SNOs between GOES-14 and NOAA-20 Satellite Orbit:

Table of predicted SNOs for the next 14.0 days since TLE Epoch: 8/10/2019
Index Date Time (GOES-14) GOES-14 Lat,Lon NOAA-20 Lat,Lon Distance(km) Time Diff (sec)
1 08/10/2019 08:32:14 0.37,-104.52 0.81,-106.42 216.73 80
2 08/11/2019 08:10:49 0.35,-104.50 -0.25,-101.90 297.27 80
3 08/12/2019 20:32:44 -0.37,-104.67 -0.95,-107.20 288.46 80
4 08/13/2019 20:16:40 -0.36,-104.66 0.12,-102.68 226.90 80
5 08/15/2019 08:38:25 0.37,-104.46 1.14,-107.93 394.27 80
6 08/16/2019 08:17:00 0.36,-104.45 0.14,-103.39 120.00 80
7 08/17/2019 20:38:56 -0.38,-104.60 -1.28,-108.70 467.40 80
8 08/18/2019 20:22:51 -0.37,-104.59 -0.27,-104.17 48.37 80
9 08/21/2019 08:25:51 0.38,-104.40 0.47,-104.89 55.89 80
10 08/22/2019 08:04:26 0.37,-104.38 -0.54,-100.36 458.51 80
11 08/23/2019 20:26:21 -0.37,-104.52 -0.66,-105.66 130.14 80




NCC Satellite Simultaneous Nadir Overpasses (SNOs) Prediction Service
